Regional Weather Roundup
Issued by NWS

Home | Current Version | Previous Version | Graphics & Text | Print | Product List | Glossary On
Versions: 1 2 3 4 5 6 7 8 9 10 11 12 13 14 15 16 17 18 19 20 21 22 23 24 25 26 27 28 29 30 31 32 33 34 35 36 37 38 39 40 41 42 43 44 45 46 47 48 49 50
000
ASUS43 KBIS 022302
RWRND

NORTH DAKOTA REGIONAL WEATHER ROUNDUP
NATIONAL WEATHER SERVICE BISMARCK ND
600 PM CDT THU JUL 02 2015

NOTE: "FAIR" INDICATES FEW OR NO CLOUDS BELOW 12,000 FEET WITH NO
SIGNIFICANT WEATHER AND/OR OBSTRUCTIONS TO VISIBILITY.


NDZ001>003-009>011-017-030000-
NORTHWEST NORTH DAKOTA

CITY           SKY/WX    TMP DP  RH WIND       PRES   REMARKS
WILLISTON      SUNNY     84  57  39 NW8G18    30.00S
MINOT          CLOUDY    78  63  59 NW10      29.95S HAZE
MINOT AFB      PTSUNNY   82  68  63 NW10      29.94F HAZE
$$

NDZ018>021-031>035-040>046-030000-
SOUTHWEST NORTH DAKOTA

CITY           SKY/WX    TMP DP  RH WIND       PRES   REMARKS
BISMARCK       MOSUNNY   79  60  52 NW12      29.97S HAZE
DICKINSON      SUNNY     80  58  46 N10       30.01F
GARRISON         N/A     79  64  60 N9        29.97F
HETTINGER ARPT SUNNY     78  59  51 N12       30.04F
$$

NDZ004>008-012>016-024-026-027-054-030000-
NORTHEAST NORTH DAKOTA

CITY           SKY/WX    TMP DP  RH WIND       PRES   REMARKS
GRAND FORKS    CLOUDY    76  66  71 SW9       29.89F
GRND FRKS AFB  PTSUNNY   78  67  68 W8        29.90S
DEVILS LAKE    MOSUNNY   79  61  53 W9        29.91S
$$

NDZ022-023-025-028>030-036>039-047>053-030000-
SOUTHEAST NORTH DAKOTA

CITY           SKY/WX    TMP DP  RH WIND       PRES   REMARKS
FARGO          MOSUNNY   75  54  47 S12       29.94R
JAMESTOWN      PTSUNNY   75  64  68 S7        29.93F
$$



USA.gov is the U.S. government's official web portal to all federal, state and local government web resources and services.